FW8327 Weather Reports


Display with metric or nautical units.
time (UTC)temp
F
wind
direction
speed
MPH
gust
MPH
rain 1hr
in
rain 24hr
in
rain mn
in
humidity
%
barometer
mb
20260509054640 53 166 0.0 0.0 0.00 0.00 0.00 99 1006.8
20260509054138 53 148 0.0 0.0 0.00 0.00 0.00 99 1006.8
20260509053636 53 176 0.0 0.0 0.00 0.00 0.00 99 1006.7
20260509053133 53 162 0.0 0.0 0.00 0.00 0.00 99 1006.9
20260509052631 53 151 0.0 0.0 0.00 0.00 0.00 99 1006.9
20260509052128 53 164 0.0 0.0 0.00 0.00 0.00 99 1006.8
20260509051626 53 164 0.0 0.0 0.00 0.00 0.00 99 1007.0
20260509051123 53 166 0.0 0.0 0.00 0.00 0.00 99 1006.9
20260509050620 53 161 0.0 0.0 0.00 0.00 0.00 99 1007.0
20260509050116 53 172 0.0 0.0 0.00 0.00 0.00 99 1006.7
20260509045614 53 159 0.0 0.0 0.00 0.00 0.00 99 1006.8
20260509045110 53 154 0.0 0.0 0.00 0.00 0.00 99 1006.8
20260509044608 53 167 0.0 0.0 0.00 0.00 0.00 99 1006.7
20260509044105 53 165 0.0 0.0 0.00 0.00 0.00 99 1006.8
20260509043601 53 144 0.0 0.0 0.00 0.00 0.00 99 1006.7
20260509043057 53 159 0.0 0.0 0.00 0.00 0.00 99 1006.8
20260509042553 53 163 0.0 0.0 0.00 0.00 0.00 99 1006.9
20260509042049 53 154 0.0 0.0 0.00 0.00 0.00 99 1006.9
20260509041546 53 175 0.0 0.0 0.00 0.00 0.00 99 1007.1
20260509041044 53 154 0.0 0.0 0.00 0.00 0.00 99 1006.7
20260509040542 53 166 0.0 0.0 0.00 0.00 0.00 99 1006.9
20260509040039 53 169 0.0 0.0 0.00 0.00 0.00 99 1006.9
20260509035536 53 173 0.0 0.0 0.00 0.00 0.00 99 1007.0
20260509035032 53 167 0.0 0.0 0.00 0.00 0.00 99 1006.7
20260509034531 53 160 0.0 0.0 0.00 0.00 0.00 99 1006.7
20260509034027 53 170 0.0 0.0 0.00 0.00 0.00 99 1006.8
20260509033524 53 174 0.0 0.0 0.00 0.00 0.00 99 1006.9
20260509033021 53 163 0.0 0.0 0.00 0.00 0.00 99 1006.9
20260509032518 53 159 0.0 0.0 0.00 0.00 0.00 99 1006.9
20260509032015 53 160 0.0 0.0 0.00 0.00 0.00 99 1006.8
20260509031513 53 160 0.0 0.0 0.00 0.00 0.00 99 1006.9
20260509031010 53 160 0.0 0.0 0.00 0.00 0.00 99 1006.8
20260509030508 53 159 0.0 0.0 0.00 0.00 0.00 99 1006.9
20260509030005 53 159 0.0 0.0 0.00 0.00 0.00 99 1007.1
20260509025500 53 156 0.0 0.0 0.00 0.00 0.00 99 1007.1
20260509024950 53 157 0.0 0.0 0.00 0.00 0.00 99 1007.1
20260509024447 53 161 0.0 0.0 0.00 0.00 0.00 99 1007.1
20260509023943 53 161 0.0 0.0 0.00 0.00 0.00 99 1007.1
20260509023441 54 161 0.0 0.0 0.00 0.00 0.00 99 1007.3
20260509022937 54 163 0.0 0.0 0.00 0.00 0.00 99 1007.0
20260509022435 54 156 0.0 0.0 0.00 0.00 0.00 99 1007.2
20260509021932 54 168 0.0 0.0 0.00 0.00 0.00 99 1007.4
20260509021428 54 164 0.0 0.0 0.00 0.00 0.00 99 1007.1
20260509020926 54 164 0.0 0.0 0.00 0.00 0.00 99 1007.1
20260509020424 54 171 0.0 0.0 0.00 0.00 0.00 99 1007.1
20260509015921 54 160 0.0 0.0 0.00 0.00 0.00 99 1007.0
20260509015420 54 159 0.0 0.0 0.00 0.00 0.00 99 1007.0
20260509014915 54 174 0.0 0.0 0.00 0.00 0.00 99 1007.1
20260509014407 54 179 0.0 0.0 0.00 0.00 0.00 99 1006.8
20260509013903 54 157 0.0 0.0 0.00 0.00 0.00 99 1006.9
20260509013401 54 156 0.0 0.0 0.00 0.00 0.00 99 1006.9
20260509012856 54 178 0.0 0.0 0.00 0.00 0.00 99 1007.1
20260509012353 54 177 0.0 0.0 0.00 0.00 0.00 99 1006.9
20260509011850 54 173 0.0 0.0 0.00 0.00 0.00 99 1006.8
20260509011348 54 170 0.0 0.0 0.00 0.00 0.00 99 1006.7
20260509010846 54 165 0.0 0.0 0.00 0.00 0.00 99 1006.8
20260509010343 54 170 0.0 0.0 0.00 0.00 0.00 99 1006.9
20260509005839 54 164 0.0 0.0 0.00 0.00 0.00 99 1007.1
20260509005337 54 162 0.0 0.0 0.00 0.00 0.00 99 1007.2
20260509004832 54 157 0.0 0.0 0.00 0.00 0.00 99 1006.9
20260509004328 54 147 0.0 0.0 0.00 0.00 0.00 99 1007.0
20260509003826 54 168 0.0 0.0 0.00 0.00 0.00 99 1007.0
20260509003324 54 165 0.0 0.0 0.00 0.00 0.00 99 1006.9
20260509002821 54 166 0.0 0.0 0.00 0.00 0.00 99 1006.9
20260509002318 54 169 0.0 0.0 0.00 0.00 0.00 99 1007.0
20260509001816 54 156 0.0 0.0 0.00 0.00 0.00 99 1006.9
20260509001311 54 156 0.0 0.0 0.00 0.00 0.00 99 1007.0
20260509000809 54 160 0.0 0.0 0.00 0.00 0.00 99 1007.2
20260509000307 54 161 0.0 0.0 0.00 0.00 0.00 99 1007.3
20260508235802 54 156 0.0 0.0 0.00 0.00 0.00 99 1007.3
20260508235259 54 157 0.0 0.0 0.00 0.00 0.00 99 1007.4
20260508234756 54 163 0.0 0.0 0.00 0.00 0.00 99 1007.3
20260508234253 54 169 0.0 0.0 0.00 0.00 0.00 99 1007.5
20260508233747 54 162 0.0 0.0 0.00 0.00 0.00 99 1007.3
20260508233245 54 160 0.0 0.0 0.00 0.00 0.00 99 1007.3
20260508232742 54 161 0.0 0.0 0.00 0.00 0.00 99 1007.4
20260508232238 54 165 0.0 0.0 0.00 0.00 0.00 99 1007.3
20260508231736 54 147 0.0 0.0 0.00 0.00 0.00 99 1007.3
20260508231232 54 215 0.0 0.0 0.00 0.00 0.00 99 1007.6
20260508230730 54 153 0.0 0.0 0.00 0.00 0.00 99 1007.4
20260508230225 54 160 0.0 0.0 0.00 0.00 0.00 99 1007.2
20260508225724 54 169 0.0 0.0 0.00 0.00 0.00 99 1007.4
20260508225220 54 167 0.0 0.0 0.00 0.00 0.00 99 1007.3
20260508224718 54 158 0.0 0.0 0.00 0.00 0.00 99 1007.5
20260508224215 55 157 0.0 0.0 0.00 0.00 0.00 99 1007.3
20260508223713 55 160 0.0 0.0 0.00 0.00 0.00 99 1007.3
20260508223210 55 165 0.0 0.0 0.00 0.00 0.00 99 1007.5
20260508222707 55 172 0.0 0.0 0.00 0.00 0.00 99 1007.4
20260508222204 55 162 0.0 0.0 0.00 0.00 0.00 99 1007.4
20260508221700 55 202 0.0 0.0 0.00 0.00 0.00 99 1007.6
20260508221156 55 210 0.0 0.0 0.00 0.00 0.00 99 1007.6
20260508220653 55 135 0.0 0.0 0.00 0.00 0.00 99 1007.2
20260508220150 55 153 0.0 0.0 0.00 0.00 0.00 99 1007.3
20260508215646 55 160 0.0 0.0 0.00 0.00 0.00 99 1007.3
20260508215143 55 166 0.0 0.0 0.00 0.00 0.00 99 1007.4
20260508214640 55 150 0.0 0.0 0.00 0.00 0.00 99 1007.4
20260508214137 55 136 0.0 0.0 0.00 0.00 0.00 99 1007.6
20260508213634 55 156 0.0 0.0 0.00 0.00 0.00 99 1007.4
20260508213130 55 201 0.0 0.0 0.00 0.00 0.00 99 1007.5
20260508212626 55 178 0.0 0.0 0.00 0.00 0.00 99 1007.6
20260508212123 55 176 0.0 0.0 0.00 0.00 0.00 98 1007.8
20260508211618 56 168 0.0 0.0 0.00 0.00 0.00 98 1007.9
20260508211115 56 244 0.0 0.0 0.00 0.00 0.00 98 1007.9
20260508210611 56 248 0.0 0.0 0.00 0.00 0.00 97 1007.8
20260508210109 56 188 0.0 0.0 0.00 0.00 0.00 97 1008.0
20260508205606 56 248 0.0 0.0 0.00 0.00 0.00 96 1008.0
20260508205102 56 250 0.0 0.0 0.00 0.00 0.00 96 1008.1
20260508204559 56 261 1.0 1.0 0.00 0.00 0.00 96 1008.0
20260508204055 57 256 0.0 0.0 0.00 0.00 0.00 95 1008.0
20260508203551 57 273 0.0 0.0 0.00 0.00 0.00 95 1008.1
20260508203047 57 281 0.0 1.0 0.00 0.00 0.00 94 1008.0
20260508202544 57 266 0.0 0.0 0.00 0.00 0.00 93 1008.3
20260508202041 57 261 0.0 0.0 0.00 0.00 0.00 93 1008.3
20260508201538 57 261 0.0 0.0 0.00 0.00 0.00 94 1008.2
20260508201034 57 264 0.0 0.0 0.00 0.00 0.00 94 1008.2
20260508200532 56 229 0.0 0.0 0.00 0.00 0.00 93 1008.3
20260508200027 57 247 0.0 1.0 0.00 0.00 0.00 93 1008.2
20260508195524 57 168 0.0 0.0 0.00 0.00 0.00 92 1008.3
20260508195020 57 262 0.0 0.0 0.00 0.00 0.00 90 1008.7
20260508194517 57 245 2.0 2.0 0.00 0.00 0.00 88 1008.7
20260508194015 58 262 4.0 8.0 0.00 0.00 0.00 85 1008.9
20260508193510 59 272 0.0 1.0 0.00 0.00 0.00 84 1008.8
20260508193008 59 256 0.0 1.0 0.00 0.00 0.00 81 1008.8
20260508192504 60 209 0.0 0.0 0.00 0.00 0.00 78 1008.7
20260508192001 60 198 0.0 0.0 0.00 0.00 0.00 77 1008.5
20260508191458 61 257 0.0 0.0 0.00 0.00 0.00 74 1008.6
20260508190955 62 164 0.0 0.0 0.00 0.00 0.00 71 1008.5
20260508190452 62 153 0.0 0.0 0.00 0.00 0.00 67 1008.5
20260508185948 62 169 0.0 0.0 0.00 0.00 0.00 67 1008.8
20260508185446 62 217 0.0 1.0 0.00 0.00 0.00 68 1008.7
20260508184943 62 148 0.0 0.0 0.00 0.00 0.00 67 1008.5
20260508184441 63 209 0.0 0.0 0.00 0.00 0.00 66 1008.8
20260508183937 63 260 1.0 2.0 0.00 0.00 0.00 65 1008.8
20260508183433 63 246 1.0 2.0 0.00 0.00 0.00 66 1008.7
20260508182928 63 237 0.0 0.0 0.00 0.00 0.00 66 1008.8
20260508182426 63 205 0.0 0.0 0.00 0.00 0.00 65 1008.9
20260508181921 63 238 1.0 3.0 0.00 0.00 0.00 64 1008.9
20260508181418 63 171 0.0 1.0 0.00 0.00 0.00 64 1008.8
20260508180915 63 216 0.0 0.0 0.00 0.00 0.00 64 1008.8
20260508180412 64 202 1.0 4.0 0.00 0.00 0.00 63 1008.8
20260508175908 64 155 0.0 0.0 0.00 0.00 0.00 63 1008.9
20260508175405 65 245 1.0 2.0 0.00 0.00 0.00 60 1008.8
20260508174903 65 256 1.0 3.0 0.00 0.00 0.00 62 1008.9
20260508174400 65 220 0.0 0.0 0.00 0.00 0.00 62 1008.9
20260508173856 66 129 0.0 0.0 0.00 0.00 0.00 60 1009.0
20260508173353 65 253 0.0 1.0 0.00 0.00 0.00 61 1008.8
20260508172849 66 239 0.0 1.0 0.00 0.00 0.00 62 1008.9
20260508172347 67 264 0.0 1.0 0.00 0.00 0.00 60 1008.7
20260508171843 67 165 0.0 0.0 0.00 0.00 0.00 62 1009.0
20260508171339 68 216 1.0 2.0 0.00 0.00 0.00 59 1009.3
20260508170836 67 209 0.0 0.0 0.00 0.00 0.00 61 1009.3
20260508170334 66 201 0.0 0.0 0.00 0.00 0.00 63 1009.4
20260508165831 65 164 0.0 0.0 0.00 0.00 0.00 63 1009.4
20260508165328 64 106 0.0 1.0 0.00 0.00 0.00 63 1009.8
20260508164824 63 292 0.0 1.0 0.00 0.00 0.00 63 1009.8
20260508164321 63 205 0.0 0.0 0.00 0.00 0.00 64 1009.8
20260508163819 63 121 0.0 0.0 0.00 0.00 0.00 65 1010.1
20260508163316 64 140 0.0 0.0 0.00 0.00 0.00 65 1010.2
20260508162812 64 161 0.0 0.0 0.00 0.00 0.00 64 1010.3
20260508162309 63 157 0.0 0.0 0.00 0.00 0.00 66 1010.2
20260508161806 64 132 0.0 0.0 0.00 0.00 0.00 64 1010.1
20260508161303 64 211 0.0 0.0 0.00 0.00 0.00 65 1010.3
20260508160801 63 196 0.0 0.0 0.00 0.00 0.00 67 1010.3
20260508160259 62 158 0.0 0.0 0.00 0.00 0.00 65 1010.5
20260508155755 62 201 0.0 0.0 0.00 0.00 0.00 65 1010.4
20260508155252 62 167 0.0 0.0 0.00 0.00 0.00 65 1010.5
20260508154749 62 262 0.0 0.0 0.00 0.00 0.00 66 1010.4
20260508154247 61 139 0.0 0.0 0.00 0.00 0.00 67 1010.5
20260508153743 62 184 0.0 0.0 0.00 0.00 0.00 65 1010.4
20260508153241 61 196 0.0 0.0 0.00 0.00 0.00 66 1010.4
20260508152737 61 202 0.0 0.0 0.00 0.00 0.00 67 1010.5
20260508152233 61 152 0.0 0.0 0.00 0.00 0.00 68 1010.5
20260508151729 61 150 0.0 0.0 0.00 0.00 0.00 67 1010.4
20260508151226 60 158 0.0 0.0 0.00 0.00 0.00 68 1010.6
20260508150723 60 196 0.0 0.0 0.00 0.00 0.00 68 1010.7
20260508150219 59 221 0.0 0.0 0.00 0.00 0.00 68 1010.7
20260508145715 59 245 0.0 0.0 0.00 0.00 0.00 68 1010.9
20260508145211 59 169 0.0 0.0 0.00 0.00 0.00 69 1011.0
20260508144709 59 261 0.0 0.0 0.00 0.00 0.00 68 1011.0
20260508144207 59 145 0.0 0.0 0.00 0.00 0.00 68 1011.0
20260508143704 59 209 0.0 1.0 0.00 0.00 0.00 68 1011.2
20260508143201 58 165 0.0 0.0 0.00 0.00 0.00 70 1011.2
20260508142657 58 232 0.0 0.0 0.00 0.00 0.00 69 1011.1
20260508142154 57 255 0.0 0.0 0.00 0.00 0.00 69 1011.0
20260508141650 57 147 0.0 0.0 0.00 0.00 0.00 70 1011.2
20260508141148 57 160 0.0 0.0 0.00 0.00 0.00 69 1011.2
20260508140645 57 175 0.0 0.0 0.00 0.00 0.00 70 1011.1
20260508140142 56 198 0.0 0.0 0.00 0.00 0.00 70 1011.4
20260508135638 55 257 1.0 2.0 0.00 0.00 0.00 71 1011.5
20260508135134 55 257 0.0 0.0 0.00 0.00 0.00 72 1011.7
20260508134630 54 235 0.0 0.0 0.00 0.00 0.00 71 1011.4
20260508134128 54 204 0.0 0.0 0.00 0.00 0.00 71 1011.5
20260508133624 54 222 0.0 0.0 0.00 0.00 0.00 72 1011.6
20260508133122 54 257 0.0 0.0 0.00 0.00 0.00 72 1011.8
20260508132619 54 197 0.0 0.0 0.00 0.00 0.00 73 1011.7
20260508132116 54 238 0.0 0.0 0.00 0.00 0.00 71 1011.6
20260508131612 53 153 0.0 0.0 0.00 0.00 0.00 75 1011.6
20260508131109 53 266 0.0 0.0 0.00 0.00 0.00 75 1011.5
20260508130605 53 251 0.0 0.0 0.00 0.00 0.00 73 1011.5
20260508125557 53 230 0.0 0.0 0.00 0.00 0.00 75 1011.8
20260508125055 53 190 0.0 0.0 0.00 0.00 0.00 77 1011.6
20260508124553 53 155 0.0 0.0 0.00 0.00 0.00 80 1011.5
20260508124050 52 158 0.0 0.0 0.00 0.00 0.00 81 1011.6
20260508123548 52 163 0.0 0.0 0.00 0.00 0.00 80 1011.8
20260508123045 52 156 0.0 0.0 0.00 0.00 0.00 82 1011.6
20260508122541 52 161 0.0 0.0 0.00 0.00 0.00 81 1011.4
20260508122038 51 156 0.0 0.0 0.00 0.00 0.00 80 1011.6
20260508121537 51 156 0.0 0.0 0.00 0.00 0.00 82 1011.4
20260508121034 51 153 0.0 0.0 0.00 0.00 0.00 83 1011.5
20260508120531 50 157 0.0 0.0 0.00 0.00 0.00 85 1011.3
20260508120030 49 155 0.0 0.0 0.00 0.00 0.00 87 1011.5
20260508115527 49 155 0.0 0.0 0.00 0.00 0.00 87 1011.5
20260508115023 49 153 0.0 0.0 0.00 0.00 0.00 86 1011.5
20260508114521 49 151 0.0 0.0 0.00 0.00 0.00 86 1011.4
20260508114017 49 157 0.0 0.0 0.00 0.00 0.00 86 1011.7
20260508113515 49 165 0.0 0.0 0.00 0.00 0.00 86 1011.8
20260508113012 49 165 0.0 0.0 0.00 0.00 0.00 86 1011.7
20260508112508 49 165 0.0 0.0 0.00 0.00 0.00 86 1011.4
20260508112005 49 166 0.0 0.0 0.00 0.00 0.00 86 1011.4
20260508111502 49 166 0.0 0.0 0.00 0.00 0.00 86 1011.3
20260508110959 49 167 0.0 0.0 0.00 0.00 0.00 85 1011.4
20260508110457 49 167 0.0 0.0 0.00 0.00 0.00 85 1011.4
20260508105956 49 167 0.0 0.0 0.00 0.00 0.00 84 1011.3
20260508105453 50 168 0.0 0.0 0.00 0.00 0.00 82 1011.2
20260508104950 50 172 0.0 0.0 0.00 0.00 0.00 80 1011.4
20260508104448 50 172 0.0 0.0 0.00 0.00 0.00 79 1011.2
20260508103944 50 176 0.0 0.0 0.00 0.00 0.00 79 1011.4
20260508103441 50 178 0.0 0.0 0.00 0.00 0.00 79 1011.4
20260508102938 50 172 0.0 0.0 0.00 0.00 0.00 79 1011.4
20260508102437 50 185 0.0 0.0 0.00 0.00 0.00 79 1011.3
20260508101933 50 182 0.0 0.0 0.00 0.00 0.00 79 1011.1
20260508101431 50 229 0.0 0.0 0.00 0.00 0.00 80 1011.4
20260508100928 50 228 0.0 0.0 0.00 0.00 0.00 78 1011.4
20260508100427 50 174 0.0 0.0 0.00 0.00 0.00 80 1011.2
20260508095922 50 267 0.0 0.0 0.00 0.00 0.00 81 1011.2
20260508095420 50 292 0.0 0.0 0.00 0.00 0.00 78 1011.3
20260508094917 51 244 0.0 0.0 0.00 0.00 0.00 78 1011.3
20260508094414 51 294 0.0 0.0 0.00 0.00 0.00 76 1011.3
20260508093910 51 262 0.0 0.0 0.00 0.00 0.00 76 1011.4
20260508093408 50 263 2.0 3.0 0.00 0.00 0.00 80 1011.5
20260508092905 50 276 1.0 2.0 0.00 0.00 0.00 83 1011.4
20260508092403 50 326 2.0 3.0 0.00 0.00 0.00 83 1011.3
20260508091902 49 205 0.0 0.0 0.00 0.00 0.00 83 1011.0
20260508091358 49 151 0.0 0.0 0.00 0.00 0.00 83 1010.6
20260508090855 49 168 0.0 0.0 0.00 0.00 0.00 81 1010.7
20260508090354 49 154 0.0 0.0 0.00 0.00 0.00 82 1011.0
20260508085849 49 146 0.0 0.0 0.00 0.00 0.00 84 1010.9
20260508085346 49 157 0.0 0.0 0.00 0.00 0.00 85 1011.0
20260508084842 49 158 0.0 0.0 0.00 0.00 0.00 85 1010.9
20260508084339 49 162 0.0 0.0 0.00 0.00 0.00 85 1011.0
20260508083837 49 173 0.0 0.0 0.00 0.00 0.00 85 1010.9
20260508083335 49 150 0.0 0.0 0.00 0.00 0.00 84 1011.1
20260508082834 49 161 0.0 0.0 0.00 0.00 0.00 83 1011.0
20260508082332 50 152 0.0 0.0 0.00 0.00 0.00 84 1011.0
20260508081829 50 158 0.0 0.0 0.00 0.00 0.00 83 1010.8
20260508081326 50 154 0.0 0.0 0.00 0.00 0.00 83 1011.3
20260508080823 50 248 0.0 0.0 0.00 0.00 0.00 83 1011.3
20260508080321 50 144 0.0 0.0 0.00 0.00 0.00 84 1011.3
20260508075817 50 167 0.0 0.0 0.00 0.00 0.00 84 1011.3
20260508075314 50 174 0.0 2.0 0.00 0.00 0.00 83 1011.1
20260508074812 50 209 0.0 0.0 0.00 0.00 0.00 84 1011.4
20260508074308 51 162 3.0 6.0 0.00 0.00 0.00 83 1011.3
20260508073806 51 198 0.0 1.0 0.00 0.00 0.00 78 1011.3
20260508073304 51 187 0.0 0.0 0.00 0.00 0.00 74 1011.5
20260508072759 51 248 2.0 3.0 0.00 0.00 0.00 73 1011.4
20260508072257 51 164 0.0 0.0 0.00 0.00 0.00 73 1011.6
20260508071754 51 206 0.0 0.0 0.00 0.00 0.00 71 1011.6
20260508071252 51 245 0.0 0.0 0.00 0.00 0.00 72 1011.5
20260508070749 51 235 1.0 2.0 0.00 0.00 0.00 72 1011.5
20260508070248 51 170 0.0 0.0 0.00 0.00 0.00 71 1011.5
20260508065744 51 229 0.0 0.0 0.00 0.00 0.00 72 1011.2
20260508065242 51 214 0.0 0.0 0.00 0.00 0.00 72 1011.3
20260508064740 51 160 0.0 2.0 0.00 0.00 0.00 72 1011.2
20260508064238 51 160 0.0 0.0 0.00 0.00 0.00 72 1011.1
20260508063734 51 166 0.0 0.0 0.00 0.00 0.00 72 1010.8
20260508063232 51 204 0.0 0.0 0.00 0.00 0.00 72 1011.6
20260508062729 51 197 0.0 0.0 0.00 0.00 0.00 72 1011.4
20260508062228 51 192 0.0 0.0 0.00 0.00 0.00 73 1011.5
20260508061724 51 356 0.0 0.0 0.00 0.00 0.00 73 1011.4
20260508061221 51 168 0.0 0.0 0.00 0.00 0.00 74 1011.4
20260508060718 51 112 0.0 0.0 0.00 0.00 0.00 73 1011.4
20260508060216 51 166 0.0 0.0 0.00 0.00 0.00 73 1011.5
20260508055711 51 158 0.0 0.0 0.00 0.00 0.00 72 1011.5
20260508055208 51 184 0.0 0.0 0.00 0.00 0.00 72 1011.5